DW8199 Weather Reports


Display with metric or nautical units.
time (UTC)temp
F
wind
direction
speed
MPH
gust
MPH
rain 1hr
in
rain 24hr
in
rain mn
in
humidity
%
barometer
mb
20260508204516 60 284 0.0 2.0 0.00 0.00 0.00 63 1010.9
20260508203516 60 0.0 0.0 0.00 0.00 0.00 63 1010.9
20260508202515 60 256 0.0 2.0 0.00 0.00 0.00 59 1011.2
20260508201516 60 267 0.0 3.0 0.00 0.00 0.00 60 1011.3
20260508200515 61 341 1.0 3.0 0.00 0.00 0.00 58 1011.6
20260508195535 61 131 1.0 3.0 0.00 0.00 0.00 60 1011.6
20260508194516 61 253 1.0 3.0 0.00 0.00 0.00 59 1011.7
20260508193516 61 211 2.0 5.0 0.00 0.00 0.00 59 1011.9
20260508192516 60 183 1.0 3.0 0.00 0.00 0.00 61 1011.9
20260508191516 58 224 1.0 4.0 0.00 0.00 0.00 64 1012.0
20260508190516 57 293 1.0 3.0 0.00 0.00 0.00 65 1012.6
20260508185516 57 259 1.0 5.0 0.00 0.00 0.00 64 1012.7
20260508184516 57 299 1.0 5.0 0.00 0.00 0.00 65 1013.0
20260508183515 57 278 1.0 6.0 0.00 0.00 0.00 64 1013.3
20260508182557 57 293 1.0 9.0 0.00 0.00 0.00 64 1013.4
20260508181516 57 269 2.0 4.0 0.00 0.00 0.00 63 1013.3
20260508180516 58 269 1.0 4.0 0.00 0.00 0.00 62 1013.3
20260508175516 58 289 1.0 3.0 0.00 0.00 0.00 62 1013.3
20260508174516 58 190 1.0 4.0 0.00 0.00 0.00 62 1013.3
20260508173515 58 265 1.0 6.0 0.00 0.00 0.00 61 1013.4
20260508172516 58 267 1.0 7.0 0.00 0.00 0.00 60 1013.4
20260508171516 58 250 2.0 6.0 0.00 0.00 0.00 61 1013.3
20260508170516 58 261 3.0 6.0 0.00 0.00 0.00 60 1013.5
20260508165515 58 273 1.0 5.0 0.00 0.00 0.00 60 1013.5
20260508164515 58 273 3.0 8.0 0.00 0.00 0.00 59 1013.4
20260508163516 58 283 2.0 8.0 0.00 0.00 0.00 58 1013.6
20260508162516 58 268 2.0 6.0 0.00 0.00 0.00 58 1013.8
20260508161515 59 207 4.0 8.0 0.00 0.00 0.00 58 1013.9
20260508160536 59 253 2.0 7.0 0.00 0.00 0.00 59 1013.9
20260508155515 59 293 3.0 6.0 0.00 0.00 0.00 58 1013.9
20260508154537 59 281 3.0 7.0 0.00 0.00 0.00 59 1013.9
20260508153516 58 267 2.0 5.0 0.00 0.00 0.00 60 1013.8
20260508152516 58 281 3.0 7.0 0.00 0.00 0.00 59 1013.9
20260508151515 58 283 2.0 7.0 0.00 0.00 0.00 59 1014.0
20260508150515 58 203 4.0 10.0 0.00 0.00 0.00 59 1014.0
20260508145536 58 243 2.0 8.0 0.00 0.00 0.00 60 1014.0
20260508144515 57 291 3.0 10.0 0.00 0.00 0.00 60 1013.9
20260508143516 57 291 4.0 10.0 0.00 0.00 0.00 61 1013.7
20260508142515 56 309 3.0 10.0 0.00 0.00 0.00 61 1013.8
20260508141516 56 285 3.0 6.0 0.00 0.00 0.00 63 1013.9
20260508140515 55 294 3.0 9.0 0.00 0.00 0.00 62 1013.8
20260508135515 55 304 4.0 10.0 0.00 0.00 0.00 63 1013.9
20260508134516 55 299 3.0 8.0 0.00 0.00 0.00 62 1014.1
20260508133516 54 299 4.0 8.0 0.00 0.00 0.00 63 1014.1
20260508132535 54 263 2.0 8.0 0.00 0.00 0.00 65 1014.1
20260508131536 53 229 2.0 6.0 0.00 0.00 0.00 66 1014.1
20260508130515 52 282 2.0 6.0 0.00 0.00 0.00 67 1014.1
20260508125516 50 252 1.0 7.0 0.00 0.00 0.00 68 1014.2
20260508124515 49 159 1.0 7.0 0.00 0.00 0.00 69 1014.3
20260508123616 48 144 1.0 4.0 0.00 0.00 0.00 71 1014.4
20260508122516 47 192 1.0 4.0 0.00 0.00 0.00 74 1014.4
20260508121515 46 101 0.0 4.0 0.00 0.00 0.00 78 1014.4
20260508120515 45 99 1.0 2.0 0.00 0.00 0.00 82 1014.5
20260508115516 44 115 0.0 1.0 0.00 0.00 0.00 82 1014.4
20260508114515 44 115 0.0 1.0 0.00 0.00 0.00 81 1014.2
20260508113556 44 0.0 1.0 0.00 0.00 0.00 82 1014.2
20260508112515 45 79 0.0 2.0 0.00 0.00 0.00 81 1014.2
20260508111515 44 311 1.0 2.0 0.00 0.00 0.00 82 1014.1
20260508110515 44 0.0 0.0 0.00 0.00 0.00 82 1013.9
20260508105535 44 282 0.0 1.0 0.00 0.00 0.00 83 1013.9
20260508104515 44 355 0.0 1.0 0.00 0.00 0.00 83 1013.8
20260508103515 44 355 0.0 1.0 0.00 0.00 0.00 83 1014.0
20260508102515 44 0.0 0.0 0.00 0.00 0.00 82 1013.9
20260508101516 44 356 0.0 1.0 0.00 0.00 0.00 81 1013.9
20260508100515 45 0.0 1.0 0.00 0.00 0.00 81 1013.9
20260508095515 45 356 0.0 1.0 0.00 0.00 0.00 81 1013.9
20260508094515 46 356 0.0 1.0 0.00 0.00 0.00 80 1014.1
20260508093515 46 293 0.0 1.0 0.00 0.00 0.00 79 1014.0
20260508092515 46 0.0 2.0 0.00 0.00 0.00 78 1013.9
20260508091515 46 250 0.0 2.0 0.00 0.00 0.00 77 1013.8
20260508090515 46 240 0.0 1.0 0.00 0.00 0.00 77 1013.9
20260508085515 46 92 1.0 2.0 0.00 0.00 0.00 76 1013.8
20260508084535 46 308 0.0 1.0 0.00 0.00 0.00 74 1014.2
20260508083515 45 224 0.0 1.0 0.00 0.00 0.00 77 1014.1
20260508082515 44 124 0.0 2.0 0.00 0.00 0.00 79 1014.2
20260508081515 43 297 0.0 1.0 0.00 0.00 0.00 82 1014.3
20260508080515 43 0.0 0.0 0.00 0.00 0.00 84 1014.4
20260508075536 43 0.0 0.0 0.00 0.00 0.00 84 1014.4
20260508074535 43 0.0 0.0 0.00 0.00 0.00 84 1014.3
20260508073515 43 291 0.0 1.0 0.00 0.00 0.00 84 1014.2
20260508072515 43 291 0.0 2.0 0.00 0.00 0.00 84 1014.2
20260508071515 43 351 0.0 1.0 0.00 0.00 0.00 84 1014.2
20260508070515 43 62 1.0 2.0 0.00 0.00 0.00 84 1014.3
20260508065515 43 104 0.0 1.0 0.00 0.00 0.00 84 1014.4
20260508064535 42 0.0 0.0 0.00 0.00 0.00 84 1014.2
20260508063515 42 104 0.0 1.0 0.00 0.00 0.00 85 1014.1
20260508062515 41 103 0.0 1.0 0.00 0.00 0.00 86 1014.0
20260508061515 41 0.0 0.0 0.00 0.00 0.00 86 1014.1
20260508060515 41 0.0 0.0 0.00 0.00 0.00 85 1014.0
20260508055515 41 0.0 0.0 0.00 0.00 0.00 85 1014.2
20260508054515 41 103 0.0 1.0 0.00 0.00 0.00 84 1014.3
20260508053515 42 0.0 0.0 0.00 0.00 0.00 83 1014.4
20260508052515 42 0.0 0.0 0.00 0.00 0.00 82 1014.4
20260508051515 42 0.0 0.0 0.00 0.00 0.00 81 1014.5
20260508050516 43 0.0 0.0 0.00 0.00 0.00 81 1014.7
20260508045515 43 0.0 0.0 0.00 0.00 0.00 81 1014.8
20260508044515 43 0.0 0.0 0.00 0.00 0.00 81 1014.7
20260508043515 43 0.0 1.0 0.00 0.00 0.00 81 1014.8
20260508042515 43 103 0.0 1.0 0.00 0.00 0.00 82 1014.7
20260508041515 42 103 0.0 1.0 0.00 0.00 0.00 81 1014.4
20260508040515 43 53 0.0 1.0 0.00 0.00 0.00 81 1014.3
20260508035617 43 0.0 0.0 0.00 0.00 0.00 79 1014.2
20260508034516 43 0.0 0.0 0.00 0.00 0.00 80 1014.3
20260508033537 43 0.0 0.0 0.00 0.00 0.00 79 1014.3
20260508032516 43 0.0 0.0 0.00 0.00 0.00 77 1014.2
20260508031536 43 0.0 0.0 0.00 0.00 0.00 76 1014.1
20260508030517 43 0.0 0.0 0.00 0.00 0.00 76 1014.2
20260508025516 44 0.0 0.0 0.00 0.00 0.00 75 1014.3
20260508024516 44 0.0 0.0 0.00 0.00 0.00 73 1014.3
20260508023517 44 0.0 0.0 0.00 0.00 0.00 72 1014.2
20260508022516 45 0.0 0.0 0.00 0.00 0.00 72 1014.2
20260508021517 45 0.0 0.0 0.00 0.00 0.00 71 1014.2
20260508020516 46 0.0 0.0 0.00 0.00 0.00 69 1014.2
20260508015516 46 0.0 0.0 0.00 0.00 0.00 67 1014.1
20260508014516 47 0.0 0.0 0.00 0.00 0.00 66 1014.0
20260508013516 47 0.0 0.0 0.00 0.00 0.00 64 1013.8
20260508012516 48 0.0 0.0 0.00 0.00 0.00 62 1013.6
20260508011516 49 0.0 0.0 0.00 0.00 0.00 61 1013.5
20260508010516 49 53 0.0 1.0 0.00 0.00 0.00 60 1013.4
20260508005536 50 0.0 1.0 0.00 0.00 0.00 60 1013.3
20260508004516 51 53 0.0 1.0 0.00 0.00 0.00 59 1013.2
20260508003517 52 280 0.0 1.0 0.00 0.00 0.00 56 1013.2
20260508002516 54 0.0 0.0 0.00 0.00 0.00 52 1013.2
20260508001516 55 279 0.0 2.0 0.00 0.00 0.00 49 1013.1
20260508000516 55 286 1.0 4.0 0.00 0.00 0.00 47 1012.9
20260507235516 56 278 2.0 7.0 0.00 0.00 0.00 45 1012.7
20260507234556 56 287 2.0 7.0 0.00 0.00 0.00 45 1012.6
20260507233516 56 289 3.0 6.0 0.00 0.00 0.00 45 1012.6
20260507232517 56 269 2.0 6.0 0.00 0.00 0.00 44 1012.6
20260507231517 57 278 3.0 6.0 0.00 0.00 0.00 44 1012.7
20260507230516 57 283 4.0 8.0 0.00 0.00 0.00 43 1012.7
20260507225516 57 289 3.0 9.0 0.00 0.00 0.00 44 1012.7
20260507224516 57 289 4.0 8.0 0.00 0.00 0.00 44 1012.7
20260507223516 57 287 4.0 12.0 0.00 0.00 0.00 45 1012.7
20260507222516 57 285 6.0 15.0 0.00 0.00 0.00 47 1012.6
20260507221516 57 290 4.0 10.0 0.00 0.00 0.00 46 1012.7
20260507220536 58 290 4.0 9.0 0.00 0.00 0.00 47 1012.6
20260507215516 58 284 5.0 11.0 0.00 0.00 0.00 48 1012.4
20260507214516 59 290 3.0 10.0 0.00 0.00 0.00 47 1012.3
20260507213516 59 275 4.0 10.0 0.00 0.00 0.00 47 1012.1
20260507212516 59 283 4.0 11.0 0.00 0.00 0.00 46 1011.9
20260507211536 59 288 5.0 10.0 0.00 0.00 0.00 45 1011.7
20260507210516 60 274 3.0 9.0 0.00 0.00 0.00 44 1011.6
20260507205516 59 281 4.0 7.0 0.00 0.00 0.00 44 1011.5